[[{"header":{"parameterUnit":"m.s-1","parameterCategory":1,"la1":30.2991,"la2":30.254,"lo1":-89.0895,"lo2":-89.0444,"dy":0.0017,"dx":0.0017,"nx":28,"ny":28,"refTime":"2024-10-17T09:00:00:Z","depth":0,"parameterNumber":2,"parameterNumberName":"U-component_of_WINDS"},"data":[0,0,0,0,0,0,0,0,0,0,0,0,0,0,0,0,0,0,0,0,0,0,0,0,0,0,0,0,0,0,0,0,0,0,0,0,0,0,0,0,0,0,0,0,0,0,0,0,0,0,0,0,0,0,0,0,0,0,-5.9215,-5.9216,0,-5.9277,-5.9277,-5.9278,-5.9086,-5.908,-5.9075,-5.9069,-5.9134,-5.9141,-5.9148,0,0,0,0,0,0,0,0,0,0,0,0,0,-5.8931,-5.8937,-5.9215,-5.9216,-5.9216,-5.9277,-5.9277,-5.9278,-5.9087,-5.908,-5.9073,-5.9066,-5.9131,-5.914,-5.9148,0,0,0,0,0,0,0,0,0,0,0,0,0,-5.903,-5.8939,-5.9215,-5.9128,-5.9121,-5.9276,-5.9277,-5.9278,-5.9089,-5.908,-5.9071,-5.9063,-5.9129,-5.9139,-5.915,-5.9392,0,0,-5.9183,-5.9187,0,0,0,0,0,0,0,0,-5.9024,-5.904,-5.914,-5.9135,-5.9127,-5.9165,-5.9201,-5.9317,-5.9091,-5.9101,-5.9069,-5.9059,-5.9151,-5.916,-5.919,-5.9395,-5.9397,-5.9183,-5.919,-5.9195,-5.9198,0,0,0,0,0,0,0,-5.9018,-5.9037,-5.9239,-5.9142,-5.9134,-5.9086,-5.9091,-5.9222,-5.9175,-5.91,-5.9086,-5.9096,-5.9146,-5.9181,-5.9191,-5.9398,-5.9183,-5.9193,-5.9199,-5.9204,-5.9801,-5.981,0,0,0,0,0,0,-5.9022,-5.9032,-5.9237,-5.9241,-5.9053,-5.9099,-5.9103,-5.9161,-5.9173,-5.9166,-5.9103,-5.9086,-5.9166,-5.9178,-5.9192,-5.9473,-5.9195,-5.9205,-5.9211,-5.9791,-5.9803,-5.9813,0,0,0,0,0,0,-5.9017,-5.9042,-5.9235,-5.9133,-5.9154,-5.9113,-5.918,-5.9167,-5.9201,-5.9175,-5.9166,-5.9147,-5.916,-5.9177,-5.9342,-5.9472,-5.9209,-5.9219,-5.978,-5.9795,-5.9808,-6.0039,0,0,0,0,0,0,-5.9009,-5.9042,-5.9133,-5.9136,-5.916,-5.9385,-5.9188,-5.9175,-5.922,-5.9199,-5.9214,-5.9208,-5.9154,-5.9328,-5.9353,-5.9482,-5.9228,-5.9768,-5.9787,-5.9803,-6.0019,-6.0059,-6.0093,0,0,0,0,0,-5.9,-5.9197,-5.9139,-5.9165,-5.9274,-5.9393,-5.9406,-5.934,-5.9232,-5.9323,-5.9306,-5.9208,-5.9455,-5.9346,-5.9373,-5.9508,-5.976,-5.9782,-5.9802,-6.0003,-6.0051,-6.0092,0,0,0,0,0,0,-5.921,-5.9196,-5.9131,-5.9335,-5.9367,-5.936,-5.9473,-5.9394,-5.9457,-5.9435,-5.935,-5.9355,-5.9536,-5.9539,-5.9418,-5.9741,-5.9589,-5.9617,-5.9732,-5.9778,-5.9814,-5.9808,-5.9237,0,0,0,0,0,-5.928,-5.9378,-5.936,-5.9542,-5.9561,-5.9515,-5.9564,-5.9511,-5.954,-5.9552,-5.9547,-5.958,-5.9664,-5.9722,-5.9798,-6.002,-6.0019,-6.0126,-6.0163,-6.0193,-6.0217,-6.0331,-6.0378,-5.9882,-5.9882,-5.9882,0,0,-5.9426,-5.943,-5.9497,-5.9584,-5.9602,-5.9704,-5.9527,-5.9644,-5.9718,-5.957,-5.9724,-5.9723,-5.9754,-5.9947,-6.0033,-5.9955,-6.0354,-6.022,-6.0245,-6.0252,-6.0358,-6.0405,-6.0446,-5.9897,-5.9894,-5.9892,0,0,-5.9742,-5.9757,-5.9908,-5.993,-5.9959,-5.9927,-5.9964,-5.997,-5.9962,-6.0116,-6.0006,-6.0094,-6.0243,-6.0268,-6.03,-6.0627,-6.0537,-6.0654,-6.0846,-6.0958,-6.0997,-6.1031,-6.1144,-6.1186,-6.0679,-6.068,-6.068,0,-5.9919,-6.0069,-5.9996,-6.0119,-6.0159,-6.003,-6.0181,-6.0206,-6.026,-6.029,-6.0203,-6.0385,-6.0397,-6.0593,-6.0672,-6.0705,-6.0742,-6.065,-6.0997,-6.1031,-6.1061,-6.1168,-6.1211,-6.0693,-6.0692,-6.069,-6.0689,0,-6.0284,-6.039,-6.0508,-6.0561,-6.0615,-6.0753,-6.0699,-6.0763,-6.0705,-6.0683,-6.084,-6.085,-6.0925,-6.0968,-6.0914,-6.1157,-6.1108,-6.1012,-6.0855,-6.1123,-6.1222,-6.1263,-6.0713,-6.0708,-6.0704,-6.07,0,0,-6.0732,-6.0743,-6.0787,-6.0809,-6.0832,-6.0912,-6.1043,-6.1115,-6.117,-6.1212,-6.1318,-6.1447,-6.1356,-6.1394,-6.1341,-6.144,-6.1694,-6.133,-6.133,-6.1394,-6.1958,-6.2028,-6.2077,-6.1636,-6.1644,-6.165,-6.1954,0,-6.104,-6.1263,-6.1201,-6.1424,-6.1519,-6.1397,-6.1511,-6.1537,-6.152,-6.1598,-6.1579,-6.167,-6.1546,-6.1567,-6.166,-6.1643,-6.1805,-6.1621,-6.1732,-6.1737,-6.1724,-6.2129,-6.2203,-6.249,-6.1993,-6.1999,-6.2004,0,-6.1429,-6.1484,-6.1717,-6.1722,-6.1759,-6.1863,-6.1922,-6.2,-6.2027,-6.2007,-6.2049,-6.1975,-6.2103,-6.195,-6.2124,-6.2,-6.2042,-6.2041,-6.2051,-6.2055,-6.1884,-6.214,-6.258,-6.2622,-6.2065,-6.206,-6.2056,0,-6.1728,-6.1861,-6.2016,-6.2039,-6.205,-6.2125,-6.2133,-6.2151,-6.2198,-6.2252,-6.2281,-6.235,-6.2387,-6.2441,-6.2388,-6.2282,-6.2569,-6.2412,-6.2554,-6.2556,-6.2617,-6.2613,-6.3066,-6.2652,-6.2652,-6.2651,-6.265,0,-6.2076,-6.2222,-6.215,-6.2245,-6.2404,-6.2332,-6.2492,-6.2486,-6.2504,-6.2595,-6.2496,-6.2584,-6.251,-6.2591,-6.2551,-6.2699,-6.2718,-6.2704,-6.2691,-6.2711,-6.2712,-6.2734,-6.2711,-6.2662,-6.266,-6.2657,-6.2655,0,-6.2435,-6.2393,-6.2553,-6.2551,-6.2553,-6.2671,-6.2668,-6.2755,-6.2731,-6.2848,-6.2871,-6.2833,-6.2924,-6.2877,-6.2972,-6.2944,-6.3135,-6.3097,-6.3125,-6.3114,-6.3257,-6.3242,-6.3736,-6.3795,-6.3348,-6.3353,-6.3356,0,-6.2658,-6.2767,-6.2775,-6.2829,-6.2843,-6.2932,-6.2978,-6.2912,-6.2965,-6.3004,-6.3086,-6.3168,-6.3229,-6.338,-6.336,-6.3432,-6.3392,-6.356,-6.3402,-6.3417,-6.339,-6.3382,-6.3391,-6.3591,-6.3596,-6.36,-6.3604,0,-6.3056,-6.303,-6.3101,-6.3166,-6.3224,-6.3272,-6.3311,-6.3361,-6.3295,-6.336,-6.345,-6.3498,-6.3594,-6.3675,-6.3737,-6.3744,-6.3663,-6.3655,-6.369,-6.3709,-6.3719,-6.3711,-6.3207,-6.3642,-6.3638,-6.3636,-6.3634,-6.3632,-6.335,-6.344,-6.346,-6.3542,-6.3565,-6.3604,-6.3684,-6.367,-6.3745,-6.3816,-6.3773,-6.3879,-6.3902,-6.3976,-6.3995,-6.4076,-6.4009,-6.4062,-6.4075,-6.4088,-6.4105,-6.371,-6.4088,-6.4087,-6.4086,-6.4085,-6.4084,0,-6.374,-6.3746,-6.3823,-6.388,-6.3945,-6.3864,-6.3903,-6.3962,-6.4056,-6.4085,-6.4147,-6.425,-6.4329,-6.4317,-6.4388,-6.4455,-6.442,-6.4476,-6.4468,-6.4471,-6.4163,-6.4123,-6.4503,-6.4503,-6.4503,-6.4503,-6.4503,-6.4503,-6.3949,-6.4096,-6.4072,-6.4229,-6.4234,-6.4336,-6.4365,-6.44,-6.4422,-6.4542,-6.4606,-6.4598,-6.4609,-6.4681,-6.4749,-6.4743,-6.4772,-6.4842,-6.4822,-6.4534,-6.4493,-6.4453,-6.4414,-6.485,-6.485,-6.5122,-6.5124,-6.5126]},{"header":{"parameterUnit":"m.s-1","parameterCategory":1,"la1":30.2991,"la2":30.254,"lo1":-89.0895,"lo2":-89.0444,"dy":0.0017,"dx":0.0017,"nx":28,"ny":28,"refTime":"2024-10-17T09:00:00:Z","depth":0,"parameterNumber":3,"parameterNumberName":"V-component_of_WINDS"},"data":[0,0,0,0,0,0,0,0,0,0,0,0,0,0,0,0,0,0,0,0,0,0,0,0,0,0,0,0,0,0,0,0,0,0,0,0,0,0,0,0,0,0,0,0,0,0,0,0,0,0,0,0,0,0,0,0,0,0,-1.4239,-1.4239,0,-1.4261,-1.4261,-1.4261,-1.4295,-1.4296,-1.4296,-1.4297,-1.4317,-1.4317,-1.4317,0,0,0,0,0,0,0,0,0,0,0,0,0,-1.4224,-1.4224,-1.4239,-1.4239,-1.424,-1.4261,-1.4261,-1.4261,-1.4295,-1.4296,-1.4296,-1.4297,-1.4317,-1.4317,-1.4317,0,0,0,0,0,0,0,0,0,0,0,0,0,-1.4237,-1.4224,-1.4239,-1.4259,-1.4261,-1.4261,-1.4261,-1.4261,-1.4295,-1.4296,-1.4296,-1.4297,-1.4317,-1.4317,-1.4317,-1.4298,0,0,-1.4317,-1.4317,0,0,0,0,0,0,0,0,-1.4236,-1.4237,-1.4256,-1.4258,-1.426,-1.4276,-1.4263,-1.4274,-1.4294,-1.4282,-1.4297,-1.4298,-1.4303,-1.4304,-1.4306,-1.4299,-1.43,-1.4317,-1.4317,-1.4317,-1.4317,0,0,0,0,0,0,0,-1.4235,-1.4236,-1.4248,-1.4256,-1.4258,-1.4266,-1.4269,-1.4265,-1.4287,-1.4283,-1.4285,-1.4288,-1.4304,-1.4306,-1.4306,-1.43,-1.4317,-1.4317,-1.4317,-1.4317,-1.4278,-1.4277,0,0,0,0,0,0,-1.4231,-1.4235,-1.4247,-1.4248,-1.425,-1.4265,-1.4269,-1.427,-1.4287,-1.429,-1.4287,-1.4289,-1.4305,-1.4306,-1.4307,-1.4285,-1.4317,-1.4317,-1.4317,-1.4279,-1.4277,-1.4276,0,0,0,0,0,0,-1.4231,-1.4232,-1.4246,-1.4242,-1.4245,-1.4265,-1.4266,-1.427,-1.4272,-1.429,-1.4294,-1.4285,-1.4306,-1.4307,-1.43,-1.4286,-1.4317,-1.4317,-1.428,-1.4278,-1.4277,-1.4241,0,0,0,0,0,0,-1.423,-1.4232,-1.4226,-1.4242,-1.4245,-1.4239,-1.4265,-1.427,-1.4272,-1.4275,-1.4289,-1.4292,-1.4307,-1.43,-1.43,-1.4287,-1.4317,-1.4281,-1.4279,-1.4277,-1.4244,-1.4239,-1.4235,0,0,0,0,0,-1.423,-1.4215,-1.4225,-1.4226,-1.4238,-1.4238,-1.424,-1.4258,-1.4271,-1.4264,-1.4275,-1.4292,-1.4288,-1.4299,-1.4299,-1.4286,-1.4282,-1.428,-1.4277,-1.4246,-1.424,-1.4235,0,0,0,0,0,0,-1.4196,-1.4218,-1.4229,-1.422,-1.4227,-1.4244,-1.4236,-1.4251,-1.4254,-1.4257,-1.4278,-1.4281,-1.427,-1.4278,-1.4289,-1.4268,-1.4287,-1.4285,-1.4263,-1.4258,-1.4253,-1.4251,-1.4317,0,0,0,0,0,-1.4188,-1.4187,-1.4206,-1.4195,-1.4198,-1.4216,-1.4217,-1.423,-1.4239,-1.4242,-1.4253,-1.4259,-1.4259,-1.4259,-1.426,-1.4245,-1.4248,-1.4236,-1.4231,-1.4228,-1.4225,-1.4215,-1.421,-1.4269,-1.4269,-1.4269,0,0,-1.417,-1.4182,-1.418,-1.4189,-1.4196,-1.4193,-1.4219,-1.4216,-1.4214,-1.4241,-1.4234,-1.4242,-1.4251,-1.4239,-1.4235,-1.4245,-1.4209,-1.4225,-1.4221,-1.4221,-1.4212,-1.4207,-1.4202,-1.4267,-1.4267,-1.4268,0,0,-1.4137,-1.4146,-1.4138,-1.4144,-1.4155,-1.4167,-1.4164,-1.4179,-1.4185,-1.4179,-1.4199,-1.4197,-1.4197,-1.4202,-1.4204,-1.4171,-1.4185,-1.4171,-1.4146,-1.4137,-1.4132,-1.4128,-1.4114,-1.4109,-1.4168,-1.4168,-1.4168,0,-1.4114,-1.4112,-1.4131,-1.4127,-1.4129,-1.4153,-1.4144,-1.4149,-1.4159,-1.416,-1.4171,-1.4171,-1.4179,-1.4167,-1.4159,-1.4161,-1.4158,-1.4169,-1.4131,-1.4127,-1.4124,-1.4111,-1.4106,-1.4166,-1.4166,-1.4167,-1.4167,0,-1.4081,-1.408,-1.4071,-1.408,-1.4082,-1.4075,-1.4092,-1.4091,-1.4103,-1.4114,-1.4106,-1.4116,-1.4119,-1.4117,-1.413,-1.4107,-1.4113,-1.4127,-1.4148,-1.4116,-1.4104,-1.4099,-1.4163,-1.4164,-1.4165,-1.4165,0,0,-1.4028,-1.4047,-1.4044,-1.4047,-1.406,-1.4058,-1.4051,-1.4054,-1.4052,-1.4058,-1.4052,-1.4051,-1.4064,-1.4067,-1.408,-1.4071,-1.4042,-1.4087,-1.4087,-1.4077,-1.4015,-1.4003,-1.3998,-1.4052,-1.4051,-1.405,-1.4014,0,-1.3996,-1.3986,-1.4003,-1.3989,-1.3986,-1.4008,-1.4002,-1.4009,-1.4018,-1.4016,-1.4026,-1.4024,-1.4043,-1.4044,-1.4037,-1.4047,-1.403,-1.405,-1.4045,-1.4044,-1.4041,-1.3992,-1.398,-1.3945,-1.401,-1.4009,-1.4009,0,-1.3958,-1.3961,-1.3947,-1.3958,-1.3958,-1.3952,-1.3955,-1.3954,-1.3961,-1.3968,-1.397,-1.3985,-1.3978,-1.3998,-1.3987,-1.4,-1.3999,-1.4004,-1.4003,-1.4002,-1.4024,-1.3988,-1.3934,-1.3929,-1.4002,-1.4002,-1.4003,0,-1.3918,-1.392,-1.391,-1.3913,-1.3927,-1.3922,-1.3927,-1.3935,-1.3935,-1.3938,-1.3938,-1.3939,-1.394,-1.394,-1.3954,-1.3968,-1.3941,-1.3963,-1.3946,-1.3945,-1.3938,-1.3938,-1.3882,-1.3939,-1.394,-1.394,-1.394,0,-1.3881,-1.387,-1.3892,-1.3887,-1.3875,-1.3894,-1.3882,-1.3889,-1.3896,-1.3891,-1.3911,-1.3905,-1.3925,-1.3922,-1.3933,-1.3921,-1.3922,-1.3926,-1.3929,-1.3924,-1.3923,-1.3923,-1.3925,-1.3938,-1.3939,-1.3939,-1.3939,0,-1.3834,-1.3849,-1.384,-1.3854,-1.3857,-1.3847,-1.3859,-1.3853,-1.3863,-1.3857,-1.3856,-1.3871,-1.3868,-1.3883,-1.3882,-1.389,-1.3872,-1.3879,-1.3869,-1.3871,-1.3852,-1.3853,-1.3793,-1.3785,-1.3849,-1.3848,-1.3848,0,-1.3809,-1.3801,-1.3813,-1.3812,-1.3816,-1.3813,-1.3813,-1.383,-1.3829,-1.3836,-1.3829,-1.3827,-1.3827,-1.3821,-1.3831,-1.383,-1.3837,-1.3816,-1.3837,-1.3831,-1.3835,-1.3835,-1.3833,-1.3811,-1.381,-1.381,-1.3809,0,-1.3761,-1.3768,-1.3768,-1.3769,-1.3768,-1.377,-1.3773,-1.377,-1.3789,-1.3786,-1.3783,-1.3783,-1.3782,-1.3779,-1.3781,-1.3785,-1.3799,-1.3803,-1.3798,-1.3792,-1.3786,-1.3787,-1.3856,-1.3804,-1.3804,-1.3805,-1.3805,-1.3805,-1.3723,-1.3717,-1.3724,-1.3722,-1.3726,-1.3728,-1.3723,-1.3732,-1.373,-1.373,-1.3741,-1.3735,-1.374,-1.3743,-1.3746,-1.3741,-1.3751,-1.3745,-1.3744,-1.3742,-1.3738,-1.3788,-1.3742,-1.3742,-1.3742,-1.3742,-1.3743,0,-1.3675,-1.368,-1.3678,-1.3682,-1.368,-1.3694,-1.3698,-1.3695,-1.3689,-1.3694,-1.3692,-1.3688,-1.3685,-1.3695,-1.3694,-1.3688,-1.3694,-1.3686,-1.3686,-1.3687,-1.373,-1.3733,-1.3681,-1.3681,-1.3681,-1.3681,-1.3681,-1.3681,-1.365,-1.3639,-1.3647,-1.3637,-1.3643,-1.3637,-1.3638,-1.3639,-1.3642,-1.3636,-1.3634,-1.3641,-1.3647,-1.3645,-1.3643,-1.3646,-1.3644,-1.3633,-1.3638,-1.3678,-1.3684,-1.369,-1.3693,-1.3633,-1.3633,-1.3596,-1.3595,-1.3595]}]]